Location: Borotín
(49.5055°N, 14.6142°E)
Time: 11:22:31
(UTC+00:00)

Cosmos 1656 Rocket - Pass Details

Date: 27 May 2022
Orbit: 796 x 845 km, 71.1° (Epoch: 26 June)

Event Time Altitude Azimuth Distance (km) Brightness Sun altitude
Rises 01:39:03 0° 330° (NNW) 3,314 7.1 -10.8°
Reaches altitude 10° 01:41:28 10° 329° (NNW) 2,379 6.3 -10.5°
Maximum altitude 01:46:53 78° 244° (WSW) 820 3.5 -10.0°
Drops below altitude 10° 01:52:18 10° 159° (SSE) 2,369 5.8 -9.4°
Sets 01:54:42 0° 158° (SSE) 3,300 6.5 -9.2°
